Total_Precipitation_Accumulation
0.00 0.00 0.00 0.00 0.00 0.00 0.00 0.00 0.00 0.00 0.00 0.00 0.00 0.00 0.00 0.00 0.00 0.00 0.00 0.00 0.00 0.00
0.00 0.00 0.00 0.00 0.00 0.00 0.00 0.00 0.00 0.00 0.00 0.00 0.00 0.01 0.01 0.00 0.01 0.01 0.00 0.00 0.00 0.00
0.00 0.00 0.00 0.00 0.00 0.00 0.00 0.00 0.00 0.00 0.00 0.00 0.00 0.00 0.02 0.03 0.01 0.02 0.05 0.02 0.00 0.00
0.00 0.00 0.00 0.00 0.00 0.00 0.00 0.00 0.00 0.00 0.00 0.00 0.00 0.00 0.00 0.01 0.02 0.07 0.06 0.07 0.03 0.00
0.00 0.00 0.00 0.00 0.00 0.00 0.00 0.00 0.00 0.01 0.02 0.01 0.00 0.00 0.00 0.00 0.01 0.05 0.08 0.07 0.08 0.02
0.00 0.00 0.00 0.00 0.00 0.00 0.00 0.01 0.01 0.01 0.02 0.02 0.02 0.02 0.01 0.00 0.00 0.02 0.04 0.04 0.09 0.07
0.00 0.00 0.00 0.00 0.00 0.00 0.02 0.02 0.00 0.01 0.01 0.02 0.03 0.03 0.02 0.01 0.00 0.01 0.02 0.02 0.04 0.11
0.00 0.00 0.00 0.00 0.00 0.01 0.01 0.01 0.00 0.01 0.01 0.01 0.02 0.05 0.06 0.02 0.01 0.01 0.01 0.02 0.01 0.07
0.00 0.00 0.00 0.01 0.01 0.01 0.01 0.00 0.00 0.01 0.01 0.01 0.02 0.06 0.09 0.07 0.01 0.01 0.01 0.02 0.01 0.01
0.00 0.00 0.00 0.02 0.01 0.01 0.01 0.00 0.00 0.01 0.01 0.01 0.02 0.05 0.08 0.07 0.03 0.02 0.01 0.02 0.03 0.01
0.00 0.00 0.00 0.02 0.01 0.01 0.00 0.00 0.00 0.01 0.01 0.01 0.02 0.04 0.06 0.05 0.03 0.02 0.01 0.02 0.02 0.01
0.00 0.00 0.00 0.03 0.02 0.01 0.00 0.00 0.01 0.01 0.01 0.01 0.06 0.07 0.05 0.02 0.02 0.02 0.02 0.02 0.01 0.01
0.00 0.00 0.00 0.01 0.01 0.01 0.00 0.01 0.02 0.03 0.03 0.02 0.02 0.02 0.02 0.01 0.01 0.04 0.03 0.02 0.02 0.02
0.00 0.00 0.00 0.00 0.01 0.02 0.01 0.01 0.02 0.06 0.05 0.05 0.03 0.01 0.01 0.01 0.02 0.05 0.03 0.02 0.04 0.02